RH
100 64 46 63 90 84 64 60 74 81 59 37 46 50 41 39 36 31 22 18 15 14 15 16 25 33 39 40 39 51 76 83 75 85 86 72 80 96 87 79 78 76 79 80 82 80 81 91 100 100 99 98 97 100 97 84 73 70 69 74 79 87 93 94 90 78 72 61 60 66 63 55 56 84 72 46 65 88 103 104 102 101 92 83 68 56 53 55 59 73 84 81 78 73 70 72 71
100 63 54 70 86 84 63 54 71 85 70 44 43 52 45 39 38 34 25 19 17 16 17 16 20 27 34 39 41 42 56 71 77 86 88 76 76 90 92 87 79 71 70 73 77 76 79 88 94 93 89 84 81 85 93 94 85 75 66 67 70 76 82 85 83 70 67 60 55 56 66 73 60 73 66 42 71 99 102 104 102 93 81 73 63 59 57 57 65 78 85 87 84 70 60 66 70
99 69 66 84 83 77 58 54 77 86 78 57 43 53 52 42 41 35 28 21 20 20 18 19 18 22 27 34 42 42 43 47 56 60 63 65 65 78 90 87 75 67 66 73 79 78 79 84 88 85 78 70 63 61 69 80 81 76 70 69 69 69 69 70 71 63 62 57 57 64 69 72 58 62 51 37 73 91 82 84 83 77 69 61 58 61 54 52 66 67 67 76 78 73 66 62 58
99 76 74 88 78 74 55 51 80 89 81 72 51 50 56 50 44 38 32 23 21 22 20 21 19 20 22 29 38 42 45 43 45 44 42 44 46 58 74 74 65 60 60 65 70 70 70 70 72 69 65 61 57 55 58 66 70 69 66 66 65 62 61 61 64 59 61 63 66 73 65 54 44 44 46 46 59 67 77 82 76 72 66 57 53 55 50 50 60 54 51 55 55 61 63 54 46
99 77 74 82 74 80 63 52 74 83 77 84 68 47 53 56 48 43 39 27 21 24 23 23 21 21 20 23 31 37 42 42 44 45 44 43 41 43 49 51 51 53 55 60 64 63 61 59 59 58 58 60 63 65 64 64 62 61 59 57 55 54 53 56 61 59 70 84 84 75 50 31 33 41 60 76 75 79 94 88 75 72 66 59 49 47 50 54 58 53 54 52 47 48 48 47 41
92 76 77 88 83 82 71 68 68 64 66 85 79 48 49 56 53 49 42 31 22 26 27 25 23 22 21 20 23 27 33 38 41 43 45 48 48 46 45 45 44 47 51 57 60 58 56 54 54 54 53 54 57 58 57 55 50 55 63 61 53 50 50 52 58 65 80 97 97 76 42 31 50 68 85 99 101 98 94 80 70 68 67 62 53 50 51 58 61 58 62 64 64 58 52 49 41
78 83 77 86 84 77 72 77 67 52 59 81 83 58 50 52 55 55 45 33 24 26 29 27 26 23 21 20 19 20 24 30 34 38 41 45 50 52 52 52 51 51 52 54 55 56 56 56 55 53 52 50 48 47 46 46 43 49 63 66 56 49 49 48 55 70 84 100 101 72 50 63 81 90 99 103 102 89 75 70 65 60 53 49 55 58 56 64 63 52 55 59 62 60 62 64 53
62 83 68 69 67 74 77 71 64 52 55 77 85 67 53 49 56 60 48 35 26 27 30 29 28 26 21 17 18 19 20 21 24 28 32 38 42 47 50 52 55 55 57 57 56 56 54 55 56 54 53 50 47 46 46 49 49 47 50 56 58 54 50 46 52 65 71 88 98 81 76 91 87 82 86 83 87 78 61 61 59 50 39 37 47 52 54 59 55 53 61 64 63 59 59 63 59
51 83 76 69 60 79 81 62 60 54 56 75 85 72 56 49 55 62 53 39 27 26 30 31 29 27 22 17 16 18 20 20 19 21 23 27 31 35 39 41 45 50 54 57 59 61 61 59 57 58 56 52 51 51 58 67 63 53 48 50 58 57 50 44 48 58 60 74 89 90 85 78 66 63 67 68 80 80 69 71 64 52 43 40 44 47 51 54 57 61 65 64 62 64 67 69 73
38 83 101 85 73 90 78 60 59 59 68 70 73 78 69 55 55 63 57 42 29 26 29 31 30 26 23 17 15 16 19 20 20 21 20 22 25 27 27 27 29 33 36 39 44 49 58 62 63 67 65 60 61 67 80 90 80 66 59 56 61 60 55 49 43 45 53 65 72 73 64 54 53 54 67 77 83 80 79 84 73 61 54 52 58 61 59 66 80 79 74 70 62 66 80 89 93
18 57 102 95 82 85 65 63 62 69 84 68 63 76 81 65 55 65 62 47 32 25 28 31 30 26 23 19 15 15 17 20 21 22 22 24 28 29 26 25 24 23 24 24 26 30 38 51 65 73 76 72 66 77 94 100 91 81 76 69 66 66 65 61 55 47 45 53 57 57 56 58 63 64 72 76 76 76 79 84 77 71 68 71 77 71 65 76 93 96 95 94 88 87 91 97 98
10 28 78 84 80 77 60 64 66 85 97 81 70 65 82 76 55 63 65 53 37 26 27 30 32 28 24 21 18 16 16 18 21 22 22 26 32 33 34 38 37 32 28 26 25 25 29 43 61 69 81 88 79 85 98 100 97 95 95 87 79 73 64 64 76 78 67 67 68 63 64 70 72 72 72 71 72 73 74 77 78 79 82 89 88 74 71 81 86 89 101 107 105 102 98 98 99
12 27 70 78 76 79 76 72 68 93 100 90 77 58 83 88 58 60 68 59 43 28 25 30 31 31 27 23 22 20 20 19 20 22 20 26 34 36 38 46 53 47 36 34 33 33 47 66 73 74 86 97 94 96 100 100 99 101 103 96 90 79 60 57 81 99 90 80 73 62 60 65 69 69 68 69 73 79 81 79 79 82 91 99 93 83 83 82 70 64 83 101 99 98 102 102 101
12 24 60 74 76 78 85 81 70 82 86 84 75 63 89 97 65 58 71 66 50 33 24 29 31 32 34 28 27 26 25 24 22 22 23 29 34 34 38 45 55 58 47 41 45 55 80 101 97 91 96 100 100 100 98 99 99 101 98 85 77 75 67 60 75 97 94 85 80 67 59 63 70 69 67 69 80 97 102 98 95 92 98 104 101 96 87 71 54 45 53 65 66 73 89 89 79
15 15 29 54 73 75 83 89 76 71 77 73 63 68 89 98 75 59 74 70 56 43 24 28 31 32 38 34 31 29 28 28 26 25 27 31 31 27 34 43 48 58 60 54 57 64 74 90 102 102 100 100 99 98 95 98 100 98 91 80 78 84 89 83 86 98 91 84 79 69 67 73 77 79 79 79 85 96 99 102 104 98 100 106 103 91 70 48 38 34 34 36 37 42 51 48 40
16 16 14 30 54 62 71 87 81 66 77 66 49 72 89 92 78 60 73 71 63 52 29 26 31 31 35 36 34 31 30 28 27 26 26 28 29 25 28 34 37 43 53 57 58 62 61 63 82 95 101 102 99 98 97 98 97 93 91 93 95 88 90 98 102 101 89 86 83 75 78 84 88 91 93 89 89 93 96 102 105 102 100 95 81 61 43 34 30 29 29 28 28 28 29 30 34
16 16 14 17 32 44 44 65 85 72 74 64 41 63 81 79 69 63 68 67 69 60 37 27 29 32 32 34 34 33 31 27 25 24 23 23 24 26 25 26 28 29 34 42 46 53 60 53 55 69 88 102 102 102 102 101 96 94 100 98 90 77 83 99 100 88 77 87 97 96 96 97 99 99 98 97 96 99 98 94 88 82 73 60 47 36 29 27 26 26 27 27 29 32 38 42 46
17 15 16 13 19 28 19 44 91 81 61 53 40 51 70 68 59 67 66 64 77 70 47 31 28 33 31 32 33 34 33 28 24 21 22 21 21 23 23 24 23 25 28 36 42 45 53 49 46 50 62 79 91 100 104 104 99 98 104 98 90 86 90 93 85 73 63 70 86 95 103 104 103 101 101 103 102 95 84 71 58 49 43 37 31 28 27 26 28 30 33 37 42 47 51 51 52
17 15 16 15 14 17 12 38 88 80 52 52 51 53 65 67 64 68 62 65 85 78 58 37 28 33 31 33 33 35 36 30 25 20 21 20 21 23 22 25 24 28 33 37 44 47 51 49 48 46 44 49 59 80 95 100 103 102 101 100 99 99 94 87 78 72 71 78 83 87 98 105 104 102 96 91 82 69 58 51 43 38 35 33 32 32 33 34 36 39 43 47 52 57 58 58 60
17 17 15 15 14 15 11 31 72 70 64 80 72 62 65 70 75 72 56 65 83 74 62 43 28 33 32 32 34 36 38 33 26 20 21 21 21 23 23 25 26 29 34 39 47 48 46 48 55 51 42 42 44 61 76 87 101 102 100 100 100 101 101 100 88 82 92 100 97 94 95 95 87 77 65 55 49 42 40 41 39 38 38 37 39 42 42 42 43 45 50 53 57 60 62 64 61
15 16 15 16 13 16 11 20 51 49 60 94 90 77 74 77 84 76 59 67 82 70 64 52 30 32 32 31 35 35 39 36 29 21 19 20 20 22 23 24 26 28 29 35 41 41 38 40 54 54 42 46 53 61 69 81 97 101 100 95 90 92 93 99 92 84 90 87 80 77 70 64 56 47 40 36 38 40 42 41 40 42 43 43 45 47 47 47 49 52 56 59 59 58 59 59 55
14 14 14 17 13 16 14 12 29 25 34 77 100 92 74 84 88 73 69 75 90 79 65 61 35 30 33 30 34 33 38 38 31 25 19 20 20 21 23 24 26 28 29 32 33 35 39 39 45 49 42 44 53 65 78 87 94 96 94 85 79 76 72 76 73 66 64 55 51 50 44 41 35 31 33 39 45 46 47 46 47 50 53 55 54 53 52 52 55 61 64 61 57 54 52 53 57
13 14 12 16 14 14 16 13 16 15 15 39 83 94 71 90 84 60 78 84 95 91 69 67 42 29 35 29 32 33 36 40 36 30 22 20 21 22 23 24 26 28 31 33 33 33 37 39 39 40 40 40 47 63 78 80 81 85 83 76 72 66 59 57 53 49 46 42 41 36 32 29 26 33 45 53 54 54 54 52 57 62 66 67 65 65 63 61 62 67 66 59 55 51 51 57 55
12 14 12 13 15 13 15 15 14 14 14 13 51 93 88 100 84 54 81 85 91 97 72 68 50 31 35 31 32 33 35 40 40 36 27 22 22 23 24 25 27 29 33 33 33 32 32 34 36 38 40 42 46 57 70 71 74 77 70 63 58 53 50 47 44 40 37 33 30 26 28 32 39 52 62 65 65 65 63 62 69 74 75 73 72 74 73 70 67 65 61 54 50 51 58 57 40
12 13 13 13 13 14 13 14 16 12 16 12 28 81 100 102 86 59 75 76 77 88 71 67 57 34 32 33 32 33 36 39 42 41 33 25 22 24 24 25 29 29 33 33 31 32 32 35 40 45 48 48 49 53 59 62 64 63 55 50 47 44 42 39 35 31 29 28 27 33 43 52 63 71 74 74 75 73 70 72 77 81 84 81 78 79 78 74 66 60 54 48 49 57 59 42 23
12 12 12 13 11 13 13 12 17 13 15 14 17 63 94 94 91 73 72 70 63 73 72 69 62 40 31 34 33 32 36 39 42 45 38 28 22 24 25 24 28 29 31 32 30 30 31 35 41 45 47 49 50 50 52 52 53 51 48 44 40 38 33 31 30 29 32 35 39 49 62 75 82 85 84 80 77 73 72 75 76 83 87 79 80 89 85 72 60 51 47 49 57 58 42 23 18
11 12 11 12 13 11 13 14 14 16 19 15 10 50 92 96 97 91 79 66 57 69 80 78 67 47 33 33 35 33 36 40 41 43 40 31 23 23 25 24 26 28 29 30 29 29 30 34 40 44 46 49 50 51 52 51 50 45 40 35 32 30 30 33 34 37 47 56 60 65 77 88 89 86 81 76 74 71 73 78 77 82 81 70 79 98 91 68 52 47 51 60 57 40 22 17 19
10 12 11 11 14 9 16 22 17 23 45 46 17 29 86 102 92 95 87 61 49 68 89 89 74 55 38 32 37 35 35 40 39 40 40 34 25 23 25 24 24 26 27 29 28 29 32 36 43 47 48 50 49 48 47 44 39 34 30 30 31 31 33 38 40 47 61 70 72 76 85 88 85 81 77 78 77 75 81 80 67 66 68 69 79 88 75 54 49 55 60 56 36 20 17 18 19
10 11 11 10 12 9 16 30 33 35 63 89 53 28 72 96 82 88 92 63 45 65 88 90 77 61 43 31 37 38 35 40 39 39 42 37 27 23 24 25 24 25 26 27 28 29 32 36 42 46 48 46 41 37 33 32 30 30 31 32 33 35 39 45 49 54 63 72 80 89 89 84 86 85 82 82 72 70 78 64 48 55 64 67 67 62 54 50 56 58 47 31 17 16 19 19 21
10 10 11 10 11 11 12 31 64 74 82 99 80 60 78 81 71 83 91 65 41 57 78 84 78 66 50 34 34 39 38 42 41 40 44 40 30 23 24 25 24 25 25 26 27 29 31 33 39 45 44 37 31 29 28 32 34 35 36 37 37 39 45 50 56 62 69 80 89 94 90 86 92 89 81 70 50 49 58 49 48 58 57 50 48 50 54 55 50 37 23 17 17 20 21 23 26
9 9 9 10 9 11 10 20 58 87 95 96 90 93 85 61 62 82 87 59 34 50 72 83 83 69 56 40 32 36 39 40 42 43 44 43 33 23 23 25 25 26 25 26 27 28 29 30 36 41 38 32 28 30 39 49 50 46 43 44 46 46 49 53 60 69 78 87 93 98 99 96 90 76 61 48 38 47 56 55 55 50 41 40 46 54 52 41 28 20 18 20 22 24 28 33 36
9 9 10 13 10 9 10 12 27 44 60 73 92 106 72 39 63 87 75 47 32 49 71 87 90 73 58 46 34 33 37 39 41 44 44 44 35 23 22 24 25 27 25 25 26 29 30 29 34 38 34 30 29 37 61 78 77 68 58 53 54 55 58 62 68 77 88 100 105 101 89 71 57 47 41 41 48 63 68 60 48 38 40 48 51 47 35 24 20 21 24 26 31 38 44 50 55
8 9 12 15 11 9 11 12 14 15 21 33 68 102 69 35 70 93 68 44 40 52 74 93 94 78 61 49 38 31 34 38 40 44 44 44 38 25 22 24 25 28 27 25 26 28 30 30 34 36 33 31 32 42 69 87 84 74 64 57 57 59 64 70 77 89 98 102 95 77 57 44 40 39 39 49 65 76 71 52 39 42 50 49 40 30 24 24 28 32 36 41 49 55 62 68 72
8 8 10 11 9 9 11 11 12 11 12 12 31 67 59 32 58 84 68 54 49 51 75 97 94 83 68 53 44 33 31 38 40 43 44 42 41 29 22 23 24 27 28 26 26 28 30 32 34 36 34 35 40 47 63 78 75 61 55 57 60 65 72 79 86 90 85 72 59 49 43 42 42 41 46 62 75 73 59 43 42 50 47 36 28 27 32 38 43 48 54 60 66 72 77 79 76
9 8 8 9 9 9 9 10 11 10 12 12 12 25 29 19 33 53 53 55 53 49 72 94 93 87 76 61 52 36 32 45 45 42 44 43 43 36 24 23 24 25 28 28 26 28 30 31 34 36 36 40 49 54 60 74 74 59 54 60 69 77 82 82 76 68 59 51 49 47 45 43 41 46 60 70 67 55 45 41 48 47 35 30 32 38 46 51 58 63 67 72 77 81 81 74 64
9 9 9 9 8 9 9 9 10 11 10 12 12 12 14 14 19 23 30 48 54 47 63 86 90 91 85 69 57 43 36 44 43 39 44 45 45 42 29 23 24 23 26 28 27 28 29 31 33 36 38 44 53 59 63 71 73 63 61 69 78 81 76 69 60 55 54 54 53 48 46 48 49 57 67 62 49 43 41 42 49 42 31 35 41 46 52 60 68 71 73 76 78 78 73 69 64
8 9 9 9 9 8 9 10 9 10 10 11 11 12 13 13 15 14 22 47 52 42 55 77 88 95 93 74 59 50 37 34 38 38 43 44 45 46 35 24 23 24 24 26 27 28 28 30 31 33 39 45 53 60 64 65 64 61 65 74 75 69 63 59 57 58 58 58 55 50 54 59 58 62 62 51 43 42 40 42 48 38 33 42 45 49 59 67 73 73 74 75 75 73 71 77 82
8 9 9 9 10 9 9 11 10 9 9 11 10 11 13 12 14 16 32 58 52 37 47 66 85 99 98 80 60 52 40 31 38 40 40 42 44 45 40 28 23 24 23 23 26 27 27 28 30 33 36 43 51 55 58 57 57 58 60 62 58 55 57 59 63 65 63 64 61 57 64 67 61 61 59 50 46 45 42 47 48 36 35 45 47 52 64 69 71 69 70 74 76 77 79 86 92
7 8 9 9 9 10 10 9 10 10 9 10 10 11 12 12 13 17 48 77 53 31 40 57 85 101 100 87 61 50 46 34 36 42 40 40 42 44 44 34 24 24 24 22 25 26 27 26 29 35 37 41 47 50 52 54 54 52 49 49 49 54 60 67 78 82 72 68 68 67 70 66 55 55 57 51 47 46 46 48 46 35 33 41 47 55 63 65 65 65 69 76 81 85 87 89 92
8 8 8 9 9 9 10 10 10 10 9 10 10 11 11 12 12 17 57 83 48 25 36 52 85 103 100 92 65 49 51 39 33 41 40 38 40 43 46 38 26 24 25 23 23 24 25 25 26 31 36 39 43 45 49 50 46 42 42 44 49 59 67 75 91 98 86 73 70 72 72 65 54 49 51 49 45 45 46 44 39 33 32 40 48 54 56 57 59 64 70 75 81 85 85 84 85
8 8 8 8 9 9 10 10 11 10 10 10 9 11 10 12 12 14 43 57 31 26 38 48 81 104 100 94 70 51 53 45 33 36 39 39 39 41 45 41 29 23 25 24 23 22 22 23 23 25 29 33 37 41 44 43 39 36 42 50 57 68 73 78 92 102 97 79 67 68 67 63 55 47 44 46 46 46 45 40 34 32 36 43 47 47 49 52 57 64 69 71 74 80 85 88 90
7 7 8 7 8 9 9 9 10 10 10 10 9 10 10 11 12 11 20 24 22 41 50 44 73 103 103 96 78 57 54 50 37 33 38 39 39 41 42 42 33 24 23 24 23 22 21 20 20 21 24 29 32 37 38 38 37 37 45 58 73 80 74 78 95 102 94 79 68 67 64 56 48 43 41 42 44 44 40 37 34 35 39 41 41 40 42 47 53 59 65 68 69 75 85 94 99
8 8 8 8 8 8 8 9 9 10 10 10 9 9 9 10 11 12 12 13 32 64 66 47 63 96 105 100 87 67 57 54 42 33 36 39 39 41 41 42 37 26 22 23 22 21 20 18 19 19 22 26 29 33 34 37 43 45 46 56 74 81 72 80 95 90 79 72 68 64 60 55 47 41 38 38 39 39 39 39 37 38 39 38 37 40 43 47 52 57 64 70 72 78 86 94 100
8 8 7 8 8 7 8 8 8 9 10 10 9 9 9 9 10 12 11 14 42 80 85 63 60 86 105 104 96 80 63 57 48 36 33 37 39 40 42 42 39 30 22 21 22 20 19 18 19 20 21 24 26 31 34 39 49 58 61 62 68 68 67 79 84 73 66 67 64 61 59 56 48 40 36 36 39 44 45 43 40 38 37 36 39 47 54 56 60 65 69 74 77 81 87 92 95
9 8 8 8 7 7 8 7 8 8 9 9 10 9 10 10 9 11 10 15 43 79 95 84 71 82 102 105 100 89 72 60 51 42 34 34 38 39 42 43 40 34 24 20 20 19 18 17 18 19 20 22 24 28 35 40 49 61 69 66 58 54 62 73 68 60 61 61 57 54 50 45 39 36 36 40 45 48 46 41 37 36 33 36 45 54 60 61 65 70 73 75 75 75 78 81 84
9 8 8 8 7 8 7 7 8 7 8 8 9 10 10 10 9 11 10 13 34 58 75 88 85 83 94 104 103 93 79 64 54 48 39 33 36 38 41 44 42 37 28 21 20 19 18 16 17 19 19 21 23 27 33 42 48 55 62 60 52 52 59 60 53 51 53 52 52 53 51 47 44 42 43 45 45 40 37 35 33 34 36 42 51 56 59 62 68 72 74 74 72 72 75 76 76
10 9 9 8 8 8 7 8 7 7 8 7 9 9 9 11 9 10 10 11 23 33 51 87 94 81 88 102 105 98 83 68 57 53 46 35 34 37 40 43 44 41 33 24 19 19 18 15 15 19 19 20 26 29 33 40 46 50 55 55 52 53 53 48 44 45 49 49 53 58 58 54 50 49 47 45 40 35 34 35 36 40 44 48 52 55 59 65 70 71 71 71 71 72 72 71 69
10 10 10 9 8 8 7 8 7 7 8 6 8 8 8 11 9 10 10 9 15 15 43 92 91 71 90 104 102 102 92 73 58 54 52 43 35 34 39 42 43 44 37 28 21 18 19 16 14 17 18 19 25 31 32 35 41 46 49 51 52 51 46 41 39 41 47 49 51 56 57 56 53 49 45 42 40 39 38 40 42 45 46 47 52 56 61 67 68 67 66 67 69 67 65 64 61
11 10 10 10 9 8 7 8 7 7 7 6 8 7 8 10 8 11 9 9 13 10 44 94 77 51 81 105 104 106 99 79 61 54 55 52 42 34 36 40 43 45 42 33 25 19 18 18 15 14 16 18 23 29 31 32 37 42 45 48 51 48 39 35 36 38 42 46 50 53 52 53 54 51 47 43 42 42 42 43 45 45 46 49 54 58 61 65 65 63 62 61 60 58 55 53 50
11 10 11 10 10 9 8 8 7 7 7 6 7 7 8 8 8 11 9 9 11 9 40 84 74 51 66 94 108 104 93 81 63 55 57 56 49 38 34 38 41 45 45 40 31 22 18 18 17 15 14 17 21 27 30 30 34 37 40 42 45 45 38 33 34 35 36 41 48 51 48 46 46 48 48 44 42 41 40 42 46 48 51 54 56 58 59 61 60 57 55 53 51 50 48 46 46
11 11 10 10 10 10 9 8 8 7 7 7 7 6 7 7 8 9 9 11 10 9 34 65 77 77 72 83 103 94 81 81 66 54 58 60 54 43 35 35 39 43 46 44 37 27 20 17 16 15 14 16 20 25 27 28 31 34 35 36 39 41 37 33 34 35 35 36 40 45 47 45 40 39 43 42 40 39 38 41 47 50 53 56 57 57 56 54 53 51 50 49 47 47 47 47 48
13 12 11 10 10 10 10 9 8 8 7 7 7 7 7 6 7 8 8 10 9 9 29 53 74 95 88 79 89 85 81 86 73 56 57 61 59 51 41 34 36 41 45 46 43 34 25 19 16 16 14 14 18 22 25 25 29 33 33 32 35 38 38 35 34 36 35 34 36 39 43 46 43 36 36 37 36 36 38 40 44 46 49 51 50 50 49 47 45 46 46 46 46 46 45 44 45
15 13 12 12 11 10 10 10 9 9 8 7 7 6 7 7 6 8 7 9 10 8 17 34 54 82 94 85 79 81 91 98 85 66 58 61 59 54 50 40 33 38 43 45 47 42 33 23 16 16 15 14 16 18 22 23 25 29 32 31 31 33 35 34 34 35 35 35 36 38 39 42 42 36 33 34 34 36 37 38 40 42 43 43 43 43 43 42 42 42 43 42 41 41 41 40 39
19 17 15 13 12 11 10 10 10 9 8 8 8 6 7 7 6 7 7 7 10 9 9 17 24 40 69 88 84 80 93 105 101 85 67 60 58 55 56 50 37 35 40 44 47 46 41 31 20 16 15 14 15 16 18 21 22 24 28 29 29 29 30 30 31 32 34 35 36 37 37 37 37 35 33 32 33 34 35 36 37 38 39 38 38 39 39 40 41 41 43 43 43 42 42 42 40
26 23 20 16 15 13 12 12 11 10 9 8 8 7 6 7 6 6 7 6 8 9 8 15 22 25 42 73 86 80 85 100 106 101 84 66 59 58 58 56 47 38 36 41 46 47 45 39 28 19 15 15 14 14 15 18 20 21 23 25 27 27 27 27 28 29 31 33 36 37 37 36 35 34 32 31 32 32 33 33 33 34 36 36 37 39 42 45 46 48 49 48 48 48 47 46 46
29 28 26 21 19 17 14 14 12 11 10 9 9 8 7 7 7 6 6 6 7 8 8 11 29 56 68 74 81 74 73 92 102 102 98 82 71 68 61 57 56 47 38 37 43 47 47 45 38 25 17 15 14 14 14 15 18 20 21 23 24 25 26 26 27 29 30 31 34 36 36 36 35 32 31 30 29 30 30 30 33 34 35 37 40 42 45 47 47 48 49 49 48 48 45 43 44
28 28 28 26 24 22 18 16 15 13 12 10 9 9 8 7 7 6 6 6 6 7 10 6 20 71 102 93 85 73 63 85 104 100 100 96 89 85 74 64 65 59 46 37 38 45 46 45 44 35 23 16 14 14 14 14 16 17 19 20 21 23 23 24 26 28 29 29 32 35 35 35 35 33 31 30 28 29 29 30 34 36 37 39 39 41 43 46 51 48 40 40 42 41 40 41 40
28 27 27 27 25 24 22 19 16 15 14 12 11 10 9 7 6 7 6 6 7 4 9 8 9 53 101 105 97 85 67 84 107 103 100 101 98 102 94 82 83 78 60 42 35 41 45 45 46 42 33 23 16 14 15 14 14 15 17 18 19 21 21 21 23 25 28 28 29 33 35 33 35 34 32 31 29 28 27 28 32 34 34 34 33 39 42 43 54 53 34 29 33 32 35 41 40
Wind_Speed
1 7 8 8 8 10 12 13 16 19 23 25 25 27 29 31 32 33 33 32 30 27 24 21 18 15 14 14 13 8 4 3 5 6 5 7 8 7 6 6 8 9 10 10 11 12 12 11 12 12 12 12 12 14 16 17 17 17 17 17 17 17 17 17 17 17 17 16 17 16 12 11 10 9 10 11 9 11 13 12 10 10 13 15 16 17 16 14 15 16 16 15 14 14 14 16 17
3 7 7 7 7 9 12 13 15 17 22 26 25 27 29 30 32 33 33 33 31 28 26 23 20 17 14 13 12 9 5 2 0 2 2 4 6 7 5 3 5 8 9 9 10 11 12 12 12 11 11 11 12 14 16 17 18 18 18 18 17 17 17 17 18 18 18 18 18 16 12 10 12 11 12 11 10 13 13 12 13 14 17 16 16 15 13 11 12 13 14 14 14 13 13 15 17
4 5 7 6 7 9 11 13 15 16 20 25 25 27 29 30 32 33 33 33 31 30 28 25 22 19 15 12 11 10 8 6 2 2 4 4 6 8 6 3 3 5 7 8 10 11 12 12 12 12 12 12 13 15 16 18 20 20 19 19 18 18 17 18 18 19 19 19 19 16 13 14 14 13 14 12 11 15 16 18 19 19 19 17 14 13 13 11 10 12 13 14 14 14 14 15 17
3 3 5 5 7 10 11 12 14 16 19 23 24 26 27 30 32 33 34 33 32 31 29 26 23 21 17 13 11 9 8 7 5 3 2 3 4 7 8 7 5 6 6 8 9 10 11 11 12 12 12 12 13 14 15 17 18 19 19 19 19 18 18 17 16 17 19 19 18 15 15 16 15 13 14 14 14 17 19 21 20 18 17 15 14 14 14 12 11 13 14 15 16 15 15 16 18
3 2 5 5 8 10 11 11 12 14 18 21 22 24 26 28 31 33 34 34 32 31 30 28 24 21 19 15 11 9 7 6 5 4 4 3 2 3 6 7 7 7 8 8 9 9 9 9 10 10 10 11 12 13 14 15 16 16 17 18 19 18 17 15 14 16 17 16 16 15 15 15 14 14 15 16 17 18 19 19 16 13 13 13 14 14 14 13 13 14 14 15 17 17 17 18 21
5 4 5 5 7 9 10 11 11 13 17 20 21 23 26 26 28 31 32 33 31 31 30 28 26 23 20 16 13 10 8 7 6 5 5 4 3 3 4 5 7 7 7 8 8 8 8 8 9 9 10 11 12 13 15 16 16 16 16 16 17 17 16 14 13 15 16 15 16 17 17 14 12 14 14 14 16 16 16 14 12 10 10 12 12 14 15 14 13 14 15 16 18 20 21 22 24
7 6 5 4 6 8 10 11 11 12 15 18 20 22 25 25 26 29 30 31 30 30 30 29 27 24 21 17 15 12 10 8 7 6 6 5 5 5 5 6 7 7 7 7 7 7 8 8 9 9 9 10 11 11 12 14 14 15 16 16 16 15 14 12 12 16 16 15 17 17 17 15 14 15 16 18 18 15 14 14 12 10 10 11 12 13 14 14 16 17 17 18 20 22 23 24 24
8 7 6 6 5 7 9 10 10 12 15 16 19 22 24 25 25 27 29 30 29 29 29 29 27 25 23 18 15 14 12 10 8 7 7 6 7 7 8 9 9 10 10 9 9 9 9 9 9 9 9 9 10 10 11 11 11 12 15 15 15 14 14 12 13 16 17 16 18 18 18 18 18 20 22 23 22 16 14 15 13 12 11 11 11 11 13 16 20 21 20 20 22 24 24 24 24
8 7 7 9 7 7 8 8 10 12 15 15 17 21 23 25 25 26 28 30 30 29 30 29 28 26 24 20 16 14 13 12 11 9 8 7 6 7 8 10 11 12 12 12 12 12 11 10 10 10 10 10 10 10 10 11 11 10 11 12 12 12 12 13 13 15 16 16 18 20 21 23 23 23 23 23 21 17 15 15 14 13 13 12 11 12 15 18 21 22 22 23 25 26 25 24 23
8 6 7 9 8 8 8 7 9 12 14 14 16 19 23 25 25 26 28 29 30 30 30 30 28 27 25 22 17 14 13 13 12 11 9 8 7 6 6 7 9 10 11 12 12 12 12 11 10 9 10 10 9 9 8 9 12 11 10 10 10 10 10 11 13 14 15 15 17 20 22 22 22 22 19 17 18 17 16 17 16 16 15 15 15 16 18 21 23 23 24 25 26 27 26 24 23
8 7 8 9 9 10 7 7 9 11 13 14 15 17 21 24 24 25 27 29 30 30 30 30 28 27 26 23 18 15 14 13 12 12 11 10 9 8 6 6 6 7 7 8 8 8 9 9 9 9 9 9 7 7 6 8 11 11 11 11 10 10 9 9 10 12 14 15 17 19 19 18 17 16 13 12 14 16 17 18 18 19 18 17 18 19 21 23 23 24 25 25 25 25 25 25 25
9 9 10 10 10 11 8 8 8 9 12 14 16 17 19 22 23 24 26 28 30 30 30 30 29 27 26 24 20 18 16 14 14 13 13 12 11 10 9 8 7 6 6 6 5 5 5 5 7 8 8 7 6 5 5 8 10 11 11 11 12 11 11 9 8 8 9 10 10 11 11 11 11 10 10 12 14 16 17 18 19 20 20 20 20 22 23 22 22 23 23 21 20 21 24 26 27
10 10 11 10 10 11 10 9 7 7 10 14 16 16 17 20 22 22 24 27 29 30 30 29 28 27 26 24 22 21 19 17 16 15 14 12 11 11 10 10 9 8 7 7 5 4 3 4 6 7 6 5 6 4 4 8 9 9 11 13 14 12 12 10 8 7 7 6 5 4 5 7 8 9 11 13 15 17 18 20 21 22 22 22 22 23 23 22 22 21 20 19 19 20 23 27 29
12 11 12 11 9 10 9 8 6 7 9 13 14 15 16 18 20 21 22 26 29 30 30 29 28 27 26 24 24 23 21 19 17 16 14 13 12 11 11 11 10 9 8 8 6 5 4 3 4 5 6 7 7 4 5 9 9 9 12 14 13 12 11 10 9 8 7 6 6 5 7 7 9 10 12 13 15 17 18 20 21 22 23 23 23 23 22 21 20 20 19 19 19 19 21 24 24
15 14 14 13 10 9 8 7 6 8 9 11 12 12 14 16 18 20 21 25 28 29 30 28 28 28 26 24 25 25 23 21 18 17 15 13 13 13 12 12 11 9 8 7 6 5 4 3 4 5 7 8 5 3 5 10 11 11 11 11 11 10 9 10 11 8 5 5 6 8 10 10 12 12 13 14 14 16 18 20 21 22 22 22 21 20 20 19 18 19 18 18 18 18 18 17 15
18 17 17 15 12 9 7 6 6 8 9 9 10 10 13 15 16 19 20 23 26 29 29 28 28 28 26 25 25 26 25 23 20 18 16 14 14 13 13 12 11 9 8 6 6 5 4 3 5 5 6 6 5 5 8 11 12 11 10 10 9 8 7 7 8 7 5 6 7 8 9 11 12 13 14 14 14 16 18 19 18 18 18 18 18 18 18 17 16 16 15 15 13 12 11 10 9
20 20 18 16 14 12 8 8 7 8 7 7 9 9 11 13 15 18 19 21 24 27 29 28 27 28 27 26 26 26 27 25 21 19 17 16 15 14 13 12 11 9 8 6 5 4 3 3 5 7 6 6 8 10 13 14 13 10 9 10 9 7 6 6 6 7 8 8 8 8 8 10 11 11 11 10 11 12 13 13 12 13 14 15 16 16 15 13 11 10 9 8 7 7 7 7 6
22 21 21 18 16 15 11 10 9 8 7 7 10 9 10 14 16 17 18 20 23 26 28 28 27 27 27 26 26 27 28 27 23 21 19 18 17 15 14 13 11 10 8 7 6 4 3 2 4 6 7 7 8 11 14 14 12 10 10 10 8 8 7 7 8 9 10 10 10 9 8 7 9 10 10 9 9 8 8 9 9 11 11 12 12 11 9 7 5 3 3 3 5 5 5 5 5
23 23 22 20 18 16 13 11 9 8 8 8 10 9 10 14 16 15 16 19 22 24 26 27 26 27 26 26 26 27 29 28 25 22 20 19 18 17 15 14 12 10 9 7 5 4 3 2 2 4 6 7 7 8 10 10 10 11 10 8 8 8 9 10 10 10 11 10 10 9 7 4 4 6 8 8 7 7 7 7 8 8 8 9 9 7 5 3 2 3 4 4 3 3 4 4 5
25 25 24 22 20 18 15 12 8 7 10 10 9 10 10 14 15 14 15 17 20 22 24 25 25 25 26 26 26 27 28 28 26 23 21 20 19 17 15 14 12 11 9 8 6 5 4 2 1 2 3 4 5 5 6 6 7 8 8 7 7 7 7 9 8 7 6 5 6 5 4 3 4 5 5 5 5 5 5 5 5 7 9 9 8 6 4 4 4 5 4 4 3 4 4 5 6
27 26 25 23 21 19 17 14 11 10 12 10 9 11 11 12 13 13 14 15 18 20 22 24 24 24 25 25 25 26 28 28 27 25 22 21 19 18 16 14 13 11 10 8 7 6 5 3 1 0 1 3 3 3 3 3 3 4 6 6 5 4 4 4 4 3 2 2 2 2 2 2 3 3 3 2 2 2 4 5 7 8 9 8 7 6 5 5 5 5 4 4 4 5 5 6 6
28 27 26 25 23 21 19 17 16 14 12 10 9 12 12 11 11 12 13 14 17 19 20 22 23 23 24 24 24 25 27 28 29 27 24 22 21 19 17 15 13 12 11 9 8 6 5 3 3 2 1 2 3 4 3 3 1 1 2 2 2 2 2 1 1 1 1 0 1 2 2 2 1 1 2 3 4 5 7 8 9 9 9 8 7 6 5 4 4 5 5 5 5 6 6 6 5
31 28 27 27 25 23 21 19 18 17 14 12 11 13 13 11 11 11 11 12 15 17 18 20 21 22 23 24 24 24 26 27 29 29 27 24 23 21 18 16 14 12 11 10 8 7 6 6 6 4 4 4 5 5 5 3 2 2 1 1 1 1 2 2 2 2 1 1 2 2 2 2 3 6 7 7 8 8 8 9 9 9 8 8 7 6 4 3 4 5 5 5 5 7 7 6 5
33 31 29 28 26 24 23 21 20 18 16 14 13 14 14 12 12 11 10 10 13 15 16 17 19 20 21 22 23 24 24 26 28 30 29 27 24 22 19 17 15 13 12 10 9 8 9 9 8 7 7 7 7 7 6 5 4 3 2 2 2 2 3 3 2 2 3 4 5 5 6 7 8 10 10 9 9 8 8 8 8 8 7 6 6 6 4 4 4 5 5 6 7 7 7 7 9
34 33 31 30 28 26 24 22 21 20 18 16 13 14 15 14 12 10 10 10 10 12 13 15 17 19 20 21 22 23 23 24 27 30 30 28 26 24 21 19 16 14 12 11 10 10 11 11 11 10 10 9 9 8 7 6 6 5 4 3 3 3 4 3 4 5 6 7 8 9 10 10 11 11 10 9 8 7 6 6 6 6 6 6 6 6 5 4 4 4 6 7 8 9 9 10 13
35 34 33 32 30 27 25 23 23 22 20 19 16 15 16 15 13 10 11 12 11 11 12 14 16 17 18 20 21 22 23 24 25 28 30 30 28 26 23 20 17 15 13 11 11 12 12 13 12 12 12 11 11 10 9 8 7 6 4 4 4 4 5 6 7 9 9 10 11 11 12 11 11 9 8 7 6 5 5 5 4 5 5 5 7 8 6 6 6 7 9 11 12 13 14 15 16
36 35 34 33 31 28 25 24 24 22 21 22 19 18 17 16 14 12 12 13 12 11 11 13 14 15 17 18 19 21 22 23 24 26 29 30 29 27 25 22 19 16 14 12 12 13 14 14 13 13 13 13 12 11 10 9 7 5 5 6 7 7 8 9 10 10 11 12 12 12 11 10 9 7 6 5 5 4 4 5 5 5 6 7 9 9 8 8 10 12 13 14 16 17 18 18 18
38 37 36 35 33 30 26 23 24 21 20 24 23 21 19 16 14 13 12 13 12 11 10 11 12 13 14 16 18 19 21 22 23 26 29 30 30 28 26 23 20 17 15 13 12 13 14 14 14 14 14 13 12 11 10 9 8 7 8 10 10 10 11 11 11 12 12 12 11 10 9 8 7 5 4 4 4 4 4 5 6 6 8 9 11 10 10 12 15 17 18 18 19 20 21 21 21
40 38 37 36 34 32 27 24 25 23 24 25 24 22 20 18 15 13 12 12 12 11 10 9 10 11 13 14 16 17 19 21 23 25 27 30 30 29 26 24 21 19 16 14 13 14 14 15 15 15 14 13 12 12 12 12 12 12 13 13 13 13 12 12 12 12 12 11 9 8 7 7 5 3 2 4 5 6 6 7 8 9 11 12 13 13 14 18 20 21 22 22 22 24 25 26 27
40 39 38 37 36 34 30 27 26 26 27 27 23 23 21 18 16 13 13 13 12 12 11 9 9 10 11 12 14 16 17 20 22 24 26 29 30 29 27 24 22 20 18 15 13 14 14 15 16 15 14 14 14 15 16 16 16 15 15 15 15 14 13 13 13 12 11 9 7 6 6 5 4 3 4 6 8 9 9 10 12 12 13 15 16 18 20 23 25 25 25 26 28 30 31 33 34
41 39 39 38 37 36 34 33 31 28 30 28 23 22 22 19 16 14 14 14 12 13 12 10 9 8 10 11 13 14 16 18 21 23 24 27 29 29 27 25 22 21 18 15 13 13 14 15 16 16 15 15 16 17 18 18 17 17 17 16 16 15 14 14 13 11 9 8 7 6 5 5 4 4 6 9 10 12 12 13 15 16 17 19 22 25 27 28 29 29 30 32 34 35 37 38 38
41 40 39 39 38 37 36 37 36 34 34 31 23 21 22 20 16 14 13 13 12 13 11 10 9 8 8 10 12 13 15 17 19 21 23 25 28 29 27 25 23 21 19 16 13 13 13 15 17 16 15 16 16 17 17 17 17 17 16 16 15 14 13 13 12 10 9 7 7 7 7 6 6 7 9 11 13 14 15 16 18 20 22 26 29 31 31 32 34 35 37 38 38 39 39 39 39
41 41 40 40 39 39 38 38 39 38 38 35 30 25 23 20 16 13 12 12 12 12 11 10 10 9 7 8 11 12 14 15 17 19 21 23 27 29 28 26 23 21 19 17 14 12 13 14 16 16 15 15 15 15 15 15 16 16 16 15 14 14 13 12 11 10 8 7 8 8 8 9 10 11 12 14 16 17 17 19 22 26 29 33 35 36 36 38 39 40 40 39 39 38 37 37 36
42 42 42 41 40 40 40 40 40 40 40 39 36 32 29 25 22 18 14 13 13 13 12 10 10 10 7 7 9 12 13 14 16 18 20 22 25 28 28 26 23 21 20 17 14 12 12 13 15 16 15 15 14 13 13 14 15 15 15 15 14 14 13 12 11 10 9 10 11 11 12 13 13 14 15 17 18 18 20 23 27 32 35 37 39 40 41 42 41 40 39 38 37 36 36 35 35
43 43 42 42 41 41 41 41 42 42 42 41 40 38 34 31 30 26 20 17 15 15 14 12 12 12 9 7 8 11 12 12 14 17 18 21 24 27 28 26 24 22 20 18 15 13 12 12 14 15 15 14 13 13 13 13 13 14 14 14 14 14 13 12 12 12 12 13 14 15 16 16 16 17 19 19 19 21 24 27 32 36 39 41 42 43 42 41 39 38 37 37 36 36 36 36 37
43 43 42 42 42 41 42 43 43 43 43 43 42 40 38 35 34 31 26 21 17 16 16 15 13 12 11 7 6 9 10 10 12 14 17 19 21 24 26 25 24 22 20 18 16 14 12 12 13 14 14 14 14 14 13 12 12 13 14 14 14 14 14 13 13 14 15 15 15 17 18 18 18 20 21 22 23 26 29 31 35 38 41 43 43 42 40 38 38 37 37 37 37 37 37 38 38
43 43 42 42 42 42 43 43 44 44 44 44 44 42 40 37 36 32 28 25 21 18 18 17 14 13 12 8 5 7 9 9 11 13 14 16 19 22 24 24 23 22 20 19 17 14 13 12 12 13 14 14 14 14 13 12 12 13 13 14 15 15 15 15 16 16 16 16 17 18 19 20 20 22 24 25 27 30 31 34 37 39 42 43 41 39 38 37 37 38 38 38 38 37 38 38 38
42 42 42 43 43 43 43 44 44 44 44 44 44 43 41 39 37 33 30 29 25 20 19 17 14 14 13 10 6 4 7 9 10 12 12 14 16 19 22 23 22 21 20 19 18 15 13 12 12 13 14 14 13 13 13 13 13 13 14 15 16 16 17 17 17 17 17 18 18 19 20 20 21 23 25 27 29 31 33 35 37 40 42 41 39 37 37 38 39 39 39 39 38 37 37 36 36
40 40 41 42 42 43 43 43 43 43 43 43 43 43 42 41 39 35 32 31 27 23 21 18 15 16 14 11 8 4 5 7 8 9 10 12 14 17 20 21 21 20 19 18 18 17 14 12 12 12 13 13 13 13 13 13 13 14 15 16 17 17 18 18 18 19 19 19 19 20 21 21 22 23 25 27 28 30 32 35 37 40 41 40 38 37 37 38 39 40 39 39 39 38 37 37 36
39 39 40 40 41 42 42 42 43 43 43 43 43 43 43 42 40 37 34 31 28 25 23 19 17 18 16 13 11 6 3 5 6 7 8 10 12 15 17 19 20 18 17 17 18 17 15 13 12 12 13 13 13 13 13 13 14 15 17 17 17 17 17 18 19 20 20 20 20 20 21 22 21 23 26 27 28 30 31 34 37 39 40 39 38 37 37 37 38 39 39 40 39 39 38 38 37
40 39 39 39 40 41 42 43 43 43 44 44 44 44 43 43 42 40 37 34 30 27 26 23 19 20 19 15 13 9 4 4 5 4 6 8 11 13 15 17 18 17 16 16 16 17 15 13 12 12 13 14 14 14 14 13 14 16 18 18 18 17 17 19 21 21 21 21 21 22 22 21 21 24 27 29 30 30 32 36 38 40 41 39 38 37 37 37 38 38 38 38 38 38 37 37 36
40 40 39 39 39 40 42 43 43 44 45 45 45 45 45 44 44 42 40 36 32 30 29 26 22 21 21 17 15 12 7 5 5 3 4 6 9 11 12 15 17 17 16 15 14 15 15 13 12 12 13 14 15 15 15 14 15 16 18 19 19 19 20 21 22 22 22 23 23 24 24 23 24 26 29 31 33 33 36 38 40 41 41 39 37 37 36 36 36 35 35 35 35 34 34 34 33
41 41 41 40 40 40 41 42 43 44 45 46 46 46 45 45 45 44 42 37 33 31 31 29 25 23 23 20 17 15 10 7 5 3 2 4 6 9 11 13 16 16 15 14 13 14 14 13 12 12 13 14 15 16 16 16 16 17 17 17 18 19 21 22 23 23 24 24 25 26 26 27 28 30 32 34 36 37 39 41 41 41 39 37 37 35 34 33 33 32 32 32 33 33 33 33 32
41 42 42 41 41 41 41 41 42 43 45 46 46 46 45 46 46 44 42 38 34 33 33 31 28 25 25 23 20 17 14 10 7 4 2 1 4 7 9 11 13 15 15 14 13 13 13 13 12 11 11 12 14 16 17 18 18 18 18 17 18 20 22 22 23 25 26 26 27 28 29 30 33 35 37 38 40 41 41 41 41 39 37 36 35 33 31 31 31 31 32 32 33 33 33 32 31
41 42 42 42 42 41 41 41 41 42 44 46 45 45 45 45 45 44 43 40 37 35 35 34 31 28 27 26 23 20 17 13 9 6 4 1 2 5 7 9 11 14 14 13 13 12 12 12 11 10 10 11 12 14 16 18 18 18 18 19 21 22 22 22 25 27 28 29 31 33 35 36 38 40 41 42 41 40 39 39 38 36 35 34 32 31 31 32 32 32 32 32 32 32 32 31 30
41 42 43 43 43 43 43 43 42 42 44 45 45 45 45 45 45 45 44 42 41 39 37 36 35 32 29 28 25 22 19 16 12 8 5 3 2 2 4 6 8 11 13 13 12 11 12 12 11 10 9 11 12 13 15 16 17 17 19 21 22 23 23 24 27 29 31 33 35 36 37 38 39 40 40 39 38 37 37 37 36 35 34 32 31 32 34 34 34 33 33 33 32 31 31 30 30
42 42 43 44 44 43 44 44 44 43 43 44 45 45 46 46 46 46 45 45 44 42 38 37 36 33 31 29 27 25 22 19 15 11 8 5 4 2 2 4 6 8 11 12 11 10 11 11 11 10 9 10 12 14 15 15 16 17 19 21 22 22 24 26 28 30 32 33 34 34 35 36 37 37 36 36 36 36 36 36 35 34 34 33 34 35 35 35 34 34 33 32 32 31 31 31 30
41 41 42 44 44 44 45 45 45 44 44 44 45 46 47 48 47 47 47 47 46 44 41 39 36 33 32 31 30 27 24 21 18 14 10 7 6 4 3 3 4 5 8 10 10 9 9 10 11 11 10 9 11 13 15 16 17 18 20 22 22 22 24 27 29 30 30 30 31 32 33 35 36 36 37 37 37 37 36 36 36 35 35 36 36 36 35 34 33 33 32 31 31 30 30 30 29
40 41 42 43 43 44 45 45 45 45 45 45 46 46 47 48 48 48 48 48 46 45 44 43 38 35 34 34 32 30 26 24 21 17 13 10 8 7 5 4 3 3 5 7 9 8 8 9 10 10 10 10 10 12 14 17 18 19 21 21 21 22 24 26 28 28 27 28 30 31 32 32 32 34 36 37 36 36 37 37 37 36 36 36 35 34 33 32 31 31 30 29 29 28 28 28 28
39 40 41 42 42 44 44 45 45 46 47 46 46 46 47 48 49 49 48 48 47 46 47 45 40 37 36 36 35 32 29 26 24 20 16 13 11 10 8 6 5 3 2 5 6 7 7 7 9 10 10 10 10 11 13 16 19 20 20 20 20 22 24 25 25 25 25 27 29 29 29 29 30 31 33 34 34 35 37 37 36 35 35 34 34 33 32 30 30 29 28 27 27 26 26 26 26
37 39 40 40 41 43 43 44 45 46 47 47 47 47 47 48 49 49 49 49 48 48 48 46 43 40 39 38 37 34 31 29 27 23 19 16 14 12 10 9 7 6 3 2 4 5 6 6 7 9 10 10 10 11 13 15 18 19 19 19 20 21 23 24 23 22 23 24 25 25 25 26 28 30 31 33 34 36 36 35 34 34 34 33 32 31 30 29 28 28 27 26 25 24 24 23 23
36 37 38 39 40 41 42 42 44 45 47 48 48 48 49 49 49 49 50 50 49 49 50 48 45 44 42 41 39 35 32 30 29 26 22 19 16 13 12 11 9 8 6 3 0 3 4 4 6 8 10 10 11 11 13 14 16 17 18 19 20 21 22 22 21 20 21 22 23 22 23 25 27 28 30 33 34 35 34 33 32 32 32 31 30 28 27 27 26 25 24 23 22 22 21 20 20
34 34 35 37 38 39 40 41 42 44 46 47 48 50 50 50 50 50 51 51 51 51 52 51 49 47 45 44 41 36 32 32 31 28 25 22 19 16 13 12 11 10 9 7 3 0 2 3 4 6 8 10 11 12 12 13 14 15 16 18 20 21 22 21 20 19 20 21 21 22 23 24 26 27 29 31 32 31 31 30 30 29 28 28 27 26 25 24 23 22 21 20 19 18 17 17 17
31 33 34 35 36 36 38 39 41 44 45 46 48 50 51 52 52 51 51 52 52 51 52 52 52 51 49 48 46 40 34 34 33 31 29 26 22 19 16 14 12 11 11 10 7 4 1 1 3 4 7 9 11 11 12 13 14 15 15 17 19 20 20 20 19 18 19 20 20 21 22 23 24 25 26 28 29 28 28 28 27 27 27 26 25 24 23 22 20 19 17 16 15 15 14 13 13
31 32 33 33 34 35 36 37 39 42 44 46 48 50 52 53 54 53 52 52 52 52 52 52 53 53 52 51 50 45 38 36 36 34 32 29 25 21 19 17 14 13 13 12 10 7 5 2 1 3 5 8 10 11 12 13 13 14 15 16 17 18 17 17 17 17 18 19 20 21 21 22 22 23 24 25 26 26 26 26 26 25 25 24 23 21 20 18 17 16 15 14 13 12 11 10 10
32 31 32 33 33 34 35 36 37 39 42 44 47 50 53 55 55 54 53 52 52 53 52 53 53 52 52 52 53 50 43 38 38 37 34 31 27 24 22 19 17 15 14 14 13 11 8 6 3 2 4 6 9 11 12 13 13 14 15 16 16 16 15 15 15 16 17 18 20 21 21 21 21 21 22 23 24 24 24 25 24 23 23 21 20 19 17 16 14 13 11 11 10 9 8 8 7
32 31 31 32 33 34 35 36 37 37 39 42 45 49 53 55 56 55 54 53 53 53 53 54 54 53 52 52 52 51 45 39 39 39 36 32 29 26 23 21 19 18 17 17 16 14 11 9 7 5 3 5 8 10 11 13 14 14 14 15 15 15 14 14 15 16 17 18 20 21 21 20 19 18 19 20 21 22 23 23 22 21 20 19 17 16 15 13 11 9 8 8 6 6 6 5 5
33 32 31 32 34 35 36 36 37 37 38 40 44 47 51 55 56 56 56 55 54 54 53 54 56 56 55 52 51 51 47 42 41 41 39 36 33 29 27 25 23 21 20 18 17 17 15 12 10 8 6 5 6 9 11 12 13 14 14 15 15 15 14 14 15 16 17 18 20 21 21 19 16 14 15 16 18 19 20 20 19 18 17 15 14 11 9 7 6 4 3 4 3 3 3 3 3
Wind_Direction
329 307 347 16 6 1 357 1 6 5 8 12 15 17 19 20 21 22 23 22 21 20 18 18 19 20 21 27 33 40 55 81 108 117 133 155 159 158 166 186 200 206 210 217 222 223 225 231 235 237 240 247 253 253 251 250 251 252 252 249 244 242 242 242 246 250 254 257 253 255 269 274 274 269 272 281 300 303 282 275 274 278 292 293 295 302 301 300 302 301 299 293 294 298 296 296 294
276 308 351 10 357 355 353 359 8 7 6 10 13 16 17 18 20 22 23 23 21 20 19 19 19 18 17 22 32 37 39 28 177 185 202 197 195 186 171 178 204 212 215 223 229 230 232 234 239 244 249 257 263 263 259 257 258 259 259 257 253 249 247 247 250 255 257 258 257 260 269 282 282 263 262 275 285 280 269 282 290 289 295 298 304 304 295 298 301 300 300 294 294 297 298 296 291
286 309 354 3 348 348 351 359 10 11 7 9 13 15 15 16 18 20 23 23 21 20 19 19 19 18 16 16 23 30 33 29 4 266 250 237 226 213 213 234 238 233 228 231 239 242 242 243 247 254 259 264 267 266 262 259 259 260 261 260 259 257 255 254 256 260 260 257 259 266 269 277 281 264 266 277 271 264 265 277 283 287 294 297 300 291 283 289 292 292 294 293 294 294 294 292 289
301 300 347 348 343 346 347 356 13 15 9 9 13 16 15 15 16 18 21 22 21 20 19 19 20 20 18 15 14 16 20 24 24 1 303 263 244 224 228 248 257 255 247 243 247 250 250 251 255 260 262 265 266 267 264 262 260 261 262 262 261 262 261 259 260 262 260 256 256 263 269 273 271 264 272 276 265 260 261 267 272 280 287 289 286 278 276 283 285 287 290 291 293 290 286 285 283
325 288 326 333 341 343 343 350 9 14 9 7 9 15 16 15 15 17 19 21 20 19 18 18 19 20 19 17 12 5 3 6 8 6 358 335 299 250 246 259 264 260 254 252 255 257 258 257 260 262 264 266 268 269 270 269 268 268 265 263 262 260 259 258 261 262 257 253 251 250 261 271 268 271 278 275 270 267 265 265 266 272 277 280 277 270 272 281 286 289 292 293 292 288 283 282 281
327 292 309 329 338 337 341 346 356 7 8 5 5 12 16 15 16 16 19 20 20 19 18 18 18 19 19 20 15 7 359 353 347 343 342 332 323 309 281 275 276 271 263 258 257 259 260 260 262 262 264 266 267 268 269 270 269 268 266 262 260 257 254 252 255 256 250 251 254 249 259 278 280 275 272 272 278 276 271 269 266 267 272 275 273 271 272 280 290 295 297 298 297 294 290 288 288
323 291 296 321 330 330 339 346 349 2 8 6 5 11 14 14 16 16 18 20 21 19 18 19 18 18 18 20 20 16 8 353 339 331 324 314 305 296 285 279 277 275 268 262 260 259 259 260 260 260 262 264 267 271 274 275 268 260 261 263 261 255 249 241 238 242 243 253 262 260 266 279 272 265 270 279 286 278 267 266 266 268 273 276 272 268 269 277 292 298 299 302 303 301 297 293 292
317 291 294 303 317 325 332 347 349 0 8 7 8 13 13 11 14 15 16 20 22 20 19 19 19 18 17 19 22 22 17 6 354 342 327 312 298 286 279 274 272 270 267 264 262 259 259 260 260 261 263 264 268 276 285 290 280 264 262 265 264 257 247 237 228 236 244 249 257 263 268 272 268 269 277 283 285 273 259 261 266 269 276 280 276 274 275 283 293 297 300 305 307 306 302 299 300
310 302 306 304 314 313 312 340 348 358 7 6 9 14 13 9 11 13 14 18 22 22 20 20 20 19 17 18 20 22 21 15 8 1 348 333 312 293 281 273 269 266 265 263 261 259 260 261 265 268 268 269 274 284 290 291 288 283 276 269 268 263 251 241 233 238 247 247 250 258 264 270 275 277 276 275 275 266 258 265 270 275 282 287 290 294 294 295 296 298 301 305 307 308 306 305 305
303 309 304 301 303 293 297 335 345 357 4 1 5 12 13 9 8 10 12 15 21 22 21 21 20 20 19 18 18 19 20 17 12 8 4 358 344 322 299 287 279 273 271 268 265 261 259 261 266 267 269 276 285 290 282 274 277 285 287 277 272 273 265 252 245 246 250 250 252 258 265 272 275 274 274 269 263 258 263 274 279 284 289 294 299 304 307 308 306 305 306 306 306 307 306 304 301
292 298 288 289 286 278 295 336 343 357 358 353 358 7 11 9 6 7 9 11 18 23 22 21 20 21 21 19 17 17 17 14 10 7 6 5 1 355 343 328 314 303 295 288 283 271 263 262 264 263 266 278 286 288 268 252 268 281 283 279 276 278 280 270 258 255 255 258 260 263 269 273 271 270 270 263 255 257 269 281 286 290 295 299 303 308 311 311 311 309 307 306 306 305 303 298 293
281 289 278 279 284 283 306 337 346 354 347 345 350 1 8 7 6 6 6 8 15 22 23 21 20 22 23 20 17 16 15 11 7 4 2 2 2 2 360 357 351 344 332 319 312 293 280 263 259 259 263 274 273 278 265 249 269 287 284 279 280 280 281 280 274 265 261 266 266 265 268 268 266 265 262 262 265 271 280 287 292 296 298 300 303 306 307 308 309 307 304 301 297 293 287 282 280
272 281 276 275 283 288 310 332 346 354 340 340 346 358 4 3 6 5 5 7 12 20 23 21 19 22 24 22 18 16 14 11 8 4 0 358 359 359 0 3 3 358 350 341 329 309 299 265 253 249 242 252 263 268 254 251 264 278 279 278 278 280 282 283 284 280 274 266 249 250 262 256 254 258 266 275 281 285 288 290 294 296 297 299 302 304 304 303 304 304 301 294 286 280 275 275 277
264 270 271 270 274 287 311 327 343 357 340 337 344 356 0 359 4 5 4 6 10 18 23 21 18 21 24 23 20 17 13 11 9 5 1 358 356 358 360 3 3 1 354 347 338 321 305 278 257 241 232 236 255 268 247 249 254 261 271 273 273 283 291 290 288 287 276 249 237 263 276 268 263 267 275 283 287 291 291 291 293 295 297 300 301 301 301 301 302 301 297 291 286 283 281 281 285
258 261 265 267 275 294 317 328 338 347 336 336 346 355 359 0 4 5 4 6 9 15 21 20 18 20 23 22 20 17 14 12 9 5 2 359 358 0 2 2 1 359 352 345 336 326 312 284 252 232 234 235 233 236 237 245 252 258 266 267 271 288 303 295 285 285 279 256 261 275 279 277 276 279 285 290 293 293 292 291 291 293 297 298 298 298 301 302 301 299 297 295 294 292 291 294 299
254 257 261 266 275 285 304 314 317 329 331 340 354 3 3 5 9 7 4 6 9 12 18 19 17 19 21 21 20 16 14 13 9 6 2 1 1 3 3 1 359 355 349 340 331 325 313 280 249 228 222 212 183 197 226 238 248 252 253 255 264 287 311 299 281 278 282 284 287 285 284 283 282 285 290 293 291 289 290 290 291 294 295 295 296 299 302 305 305 305 305 304 304 306 311 316 320
250 255 258 261 266 268 283 296 296 314 323 333 353 7 4 3 9 10 5 4 10 12 15 18 16 18 20 20 19 16 15 13 11 7 3 2 3 3 1 359 356 351 347 340 336 336 322 283 250 237 223 197 180 199 215 228 243 241 239 246 255 276 293 286 278 280 278 280 282 279 277 276 277 281 284 283 282 286 292 296 297 296 296 297 301 306 311 315 316 316 317 321 330 339 344 339 328
246 251 255 257 261 266 277 289 294 304 307 319 341 354 356 356 0 7 4 1 9 12 14 15 15 17 19 19 19 17 15 14 12 9 6 6 6 4 1 357 354 350 349 347 347 348 335 300 252 238 228 211 196 200 206 218 228 221 232 248 257 268 273 271 274 277 277 278 278 277 276 273 272 272 275 281 291 298 302 303 302 302 307 314 321 326 331 332 329 338 359 18 16 7 355 338 328
243 246 251 254 258 263 270 282 295 300 305 321 332 335 342 348 352 358 1 360 4 11 13 13 14 16 18 18 18 17 16 15 12 11 10 8 8 6 3 359 355 353 353 354 352 349 344 337 268 241 228 221 213 206 206 213 214 210 224 242 251 256 256 258 265 277 286 285 281 281 285 295 299 289 290 300 309 313 311 311 316 328 346 357 359 355 353 3 40 60 56 53 43 20 358 348 344
242 244 247 250 253 258 263 271 281 296 310 316 319 321 328 337 342 346 354 0 1 8 12 11 12 15 17 18 18 18 17 17 15 15 13 11 9 7 3 359 356 355 355 354 349 349 349 349 319 247 222 219 212 208 210 212 210 206 211 226 244 252 246 245 257 284 300 293 284 281 285 311 328 320 320 319 315 317 325 340 1 23 33 34 31 26 31 46 56 65 66 63 54 33 15 6 356
242 243 245 248 250 253 257 261 262 281 304 312 309 308 315 326 334 337 346 357 358 6 12 10 10 14 17 18 17 18 18 18 17 18 17 13 11 8 4 1 358 357 357 355 352 353 354 352 15 72 199 199 186 184 188 188 201 207 216 233 256 270 254 244 253 282 296 299 312 327 341 346 329 320 327 327 334 8 33 40 44 50 51 50 50 49 51 56 62 70 73 69 57 40 27 13 359
242 243 244 246 247 249 252 254 258 269 285 298 295 293 305 318 325 333 342 351 354 2 11 9 8 12 16 17 16 18 19 19 19 21 20 17 15 13 9 5 2 2 2 4 6 10 18 38 61 75 129 157 145 137 136 138 150 185 202 225 247 258 238 204 182 214 229 287 20 21 26 31 37 66 71 74 71 68 65 59 57 59 60 60 58 56 59 72 79 79 74 66 54 41 31 18 11
241 242 242 244 245 246 249 251 256 264 271 279 281 285 296 307 316 328 336 342 347 357 8 9 7 9 14 16 16 18 19 19 20 22 22 21 19 17 14 11 10 10 12 17 24 32 45 58 65 74 99 120 121 116 111 113 122 114 105 123 138 142 134 122 126 155 152 108 88 78 80 94 100 96 89 84 76 69 66 63 65 66 65 66 67 66 66 79 92 89 78 63 52 44 37 36 49
242 242 241 242 243 243 245 248 253 259 264 271 278 283 283 292 311 322 325 330 340 350 3 9 7 8 11 14 15 16 18 18 19 21 23 23 22 20 18 17 18 18 22 28 38 50 58 63 66 73 86 98 103 102 100 103 105 100 97 102 104 104 99 99 111 116 106 107 108 100 98 100 96 92 87 80 73 67 63 65 74 73 65 66 72 74 73 83 94 90 79 68 61 56 55 67 78
242 242 241 242 242 242 243 246 250 256 261 266 272 276 273 283 303 313 312 315 327 341 359 7 7 9 9 12 13 13 16 17 17 19 22 23 23 23 22 23 25 25 29 37 47 57 62 67 71 76 81 85 89 90 92 92 89 86 89 90 86 82 84 96 109 108 108 109 106 100 97 94 89 86 83 78 74 69 65 69 82 79 66 67 74 73 73 75 77 79 78 77 77 77 81 86 86
239 241 241 241 242 242 242 244 248 253 258 262 263 262 263 274 288 299 304 305 314 330 355 4 6 11 8 9 12 11 14 16 17 18 20 23 24 24 24 27 31 31 35 41 51 59 65 71 75 78 80 81 81 82 83 80 76 74 76 75 73 78 89 101 108 108 107 103 98 95 91 87 82 82 83 84 82 78 74 66 73 79 67 75 83 74 69 68 69 80 86 89 92 92 92 91 89
237 237 239 240 240 241 241 243 247 252 259 262 260 256 256 263 274 285 292 296 306 320 346 359 1 10 8 6 10 10 11 15 16 17 18 21 24 25 25 29 34 37 40 45 54 62 68 75 77 77 77 76 75 74 73 69 63 62 68 76 79 87 94 100 105 104 99 93 88 86 84 81 80 80 84 89 86 80 72 49 45 65 71 83 89 79 76 81 85 91 95 97 99 98 95 93 92
235 235 235 237 238 238 237 240 244 245 250 257 256 254 253 257 265 272 278 287 298 309 331 348 353 6 8 4 7 9 9 13 15 16 17 21 24 25 26 28 33 38 43 49 59 67 72 76 75 74 72 69 67 66 66 64 64 72 79 82 85 89 93 96 97 93 86 81 78 78 79 79 79 79 80 78 69 63 51 38 48 73 84 91 91 87 92 98 99 101 102 103 103 100 97 94 94
235 234 234 234 235 234 231 235 241 234 230 239 247 249 251 255 255 260 270 278 290 297 310 332 344 359 7 3 4 7 6 10 14 16 16 20 24 25 27 28 31 38 44 51 62 70 74 76 76 72 68 66 65 68 73 75 78 83 83 84 85 87 89 90 87 82 78 74 74 76 76 76 77 70 53 50 54 56 50 55 73 88 94 97 97 97 102 104 105 106 106 105 102 99 98 98 98
234 234 234 234 233 232 226 227 234 232 224 226 237 243 244 248 246 253 266 269 280 284 292 316 333 350 4 1 1 5 4 7 14 16 16 18 23 25 27 29 31 36 43 51 63 72 76 78 77 72 68 69 72 78 81 83 82 82 81 81 82 83 83 81 78 76 74 71 70 70 68 64 58 36 35 48 59 64 68 79 90 96 100 104 106 106 106 107 107 107 105 102 100 100 101 102 102
234 233 233 233 233 231 226 223 225 227 225 224 233 238 236 241 247 255 260 259 271 277 282 302 319 336 359 359 356 2 5 7 13 17 16 16 21 24 27 29 31 35 41 50 62 73 77 79 79 74 73 76 79 82 83 81 78 76 75 75 75 75 74 73 72 71 69 66 63 58 51 42 33 34 48 62 72 78 85 95 100 102 106 111 111 109 110 110 109 107 105 104 104 104 104 104 102
233 233 232 232 232 231 228 225 223 225 228 228 228 231 233 240 248 251 248 251 267 271 273 291 305 317 349 358 351 357 6 8 12 17 16 15 19 23 26 29 32 34 39 48 61 73 79 80 80 77 77 81 83 84 82 77 74 72 70 70 70 69 68 69 68 67 63 59 53 46 42 41 49 63 72 80 86 90 98 104 107 109 112 113 112 112 112 111 109 108 108 107 106 106 105 103 101
233 232 231 231 230 230 229 227 226 225 229 229 226 226 233 240 238 234 236 249 265 267 267 280 292 300 332 355 349 351 3 10 12 16 17 15 17 21 25 29 32 33 36 45 57 70 79 82 82 81 81 83 85 84 79 73 71 71 70 69 68 67 66 65 66 65 58 50 46 47 51 56 67 79 88 95 97 100 107 111 112 114 114 114 114 114 113 111 110 109 108 107 106 104 102 101 100
232 232 231 230 229 228 227 227 227 226 227 229 227 226 233 237 232 228 236 248 259 261 259 267 278 289 312 345 349 347 355 8 12 14 16 16 17 20 24 27 30 34 36 41 52 65 75 82 84 84 85 85 84 80 75 71 70 71 71 71 69 67 66 64 64 64 58 55 55 59 65 69 79 91 98 102 103 108 113 115 116 117 116 116 116 115 113 112 110 109 107 106 104 103 101 100 99
232 232 231 231 230 228 227 226 226 227 227 228 229 228 231 235 233 233 240 245 251 256 254 256 267 280 295 323 345 345 346 356 6 11 14 16 18 20 23 26 28 33 37 39 48 60 69 78 85 87 88 87 83 77 72 70 70 72 73 72 70 68 67 66 65 65 63 62 62 67 74 80 89 98 103 105 108 113 116 118 119 119 118 118 117 116 113 111 109 108 106 104 103 103 101 99 98
232 231 231 230 230 229 228 227 226 226 227 227 228 229 230 232 234 235 238 239 241 250 252 251 258 272 282 298 332 343 343 348 0 12 14 14 18 21 22 24 26 30 36 40 45 55 65 72 81 87 89 88 85 80 75 72 73 75 76 73 71 69 70 70 67 66 66 67 70 76 83 88 94 101 107 109 111 114 117 120 122 121 120 120 118 116 112 110 109 107 106 105 103 102 100 97 95
232 231 230 230 230 229 229 228 227 226 226 227 228 229 229 230 232 233 234 231 233 244 248 245 250 264 273 281 308 335 341 348 3 15 16 14 18 21 22 24 25 27 33 38 42 49 59 67 76 85 89 89 88 86 82 80 79 79 77 74 73 73 73 73 72 71 73 76 79 85 91 94 98 106 112 113 113 114 118 122 123 122 122 121 118 114 111 110 109 108 107 106 103 101 98 95 93
232 231 231 230 229 229 229 229 228 228 227 227 227 228 228 229 230 231 230 227 230 240 243 239 243 256 263 268 277 314 333 342 0 13 16 16 18 22 24 24 25 26 29 34 39 42 50 60 71 81 88 90 90 89 88 86 83 80 79 79 80 80 80 82 82 80 80 83 86 92 98 101 106 113 118 118 116 115 119 123 124 123 124 122 118 115 112 111 109 108 107 105 102 100 98 95 93
233 232 231 231 230 230 230 230 229 229 229 229 228 228 228 229 229 229 227 226 230 237 238 232 237 249 254 258 258 272 322 331 350 4 10 17 19 22 25 25 26 26 27 30 36 38 42 52 65 78 87 92 92 91 91 89 85 82 83 86 89 91 92 91 89 86 84 87 92 99 103 106 109 116 123 124 121 117 119 122 123 124 125 122 119 116 114 113 111 108 105 102 101 99 97 96 94
233 232 231 231 232 231 231 230 230 230 230 230 229 229 229 229 229 227 224 225 229 235 235 227 230 243 246 248 249 249 291 314 333 353 4 15 20 23 26 26 27 28 27 28 32 37 39 46 60 74 86 93 94 93 92 90 88 88 91 95 99 101 99 95 92 90 89 90 97 103 107 109 108 112 121 126 125 121 120 122 123 125 125 123 120 118 116 114 112 108 104 101 100 98 97 95 93
232 232 231 230 230 231 230 230 229 229 229 229 228 228 228 229 229 227 225 225 229 232 231 224 223 237 242 240 243 244 251 287 306 334 360 14 20 24 27 27 28 29 29 28 30 36 40 45 57 72 84 92 95 94 94 93 92 96 100 103 105 103 101 99 95 93 93 95 100 105 108 110 109 111 117 122 124 122 121 123 124 125 125 123 121 119 116 114 112 109 105 102 100 98 96 94 92
230 231 231 230 230 231 231 230 229 229 228 228 227 226 226 227 228 228 227 227 227 227 227 222 218 231 240 236 237 242 239 251 276 303 355 14 21 24 26 28 28 30 31 30 30 36 42 47 56 71 83 91 94 95 96 97 96 101 108 109 105 102 101 99 95 93 97 100 103 106 107 108 110 114 117 120 122 122 122 124 124 126 125 123 121 118 114 112 111 109 106 103 100 98 96 94 92
229 230 230 230 229 230 230 230 230 229 229 228 227 226 225 226 227 228 228 225 222 221 222 220 216 226 236 234 232 239 237 233 251 267 326 17 26 25 25 28 28 29 31 32 33 36 43 49 55 68 83 92 97 99 100 100 98 100 110 112 106 104 103 98 93 95 99 103 105 106 107 108 111 115 118 119 121 122 123 124 125 126 124 122 119 115 112 111 110 108 105 103 100 98 96 94 92
230 230 230 230 229 230 230 230 230 230 230 229 228 227 227 226 226 227 227 223 217 216 219 219 219 223 231 232 229 233 233 227 232 243 249 20 33 30 27 27 27 28 30 33 35 37 44 51 55 63 79 94 103 106 104 103 101 101 105 108 108 108 105 98 96 98 100 103 105 106 108 110 112 114 116 118 120 122 123 124 126 126 123 121 117 113 111 110 109 106 103 101 99 96 95 93 91
231 231 231 231 229 229 230 230 230 230 231 230 228 228 228 228 227 227 226 222 215 215 217 219 221 223 225 228 227 227 228 224 220 226 226 196 56 40 34 29 27 27 29 33 37 39 45 53 58 61 73 92 107 114 111 105 104 103 103 106 108 109 104 101 101 102 103 105 106 108 110 111 112 113 115 118 119 121 122 124 125 124 122 121 117 112 111 109 107 105 103 100 99 97 95 93 91
231 231 231 231 229 229 228 228 228 229 230 230 229 228 228 228 227 227 226 222 217 216 218 220 222 222 221 223 225 223 223 221 214 214 215 192 137 66 45 35 28 27 27 31 37 42 47 55 62 68 76 90 103 116 118 111 106 106 107 108 109 107 103 103 107 108 109 109 108 108 110 112 113 114 116 118 119 121 122 124 124 122 121 120 117 114 111 108 106 105 103 102 100 98 96 93 91
231 231 231 231 230 229 229 228 227 227 229 230 229 228 227 226 226 226 225 222 220 218 219 220 219 219 219 221 224 223 221 219 213 209 207 194 171 142 77 50 35 27 25 29 36 44 51 57 65 74 84 96 102 109 118 119 114 112 112 112 111 108 105 108 112 114 113 112 111 110 111 113 115 117 119 120 121 122 122 122 122 121 120 118 117 114 112 109 107 106 104 103 101 99 96 94 92
232 232 233 232 231 230 230 229 228 227 228 228 229 228 227 226 225 224 224 223 221 218 217 217 216 216 217 219 223 224 222 219 214 207 201 194 186 176 148 94 58 34 25 27 34 43 53 62 69 79 90 103 106 107 113 118 119 118 117 115 113 111 110 113 118 118 116 114 113 112 114 116 116 117 119 121 121 122 122 122 121 120 119 118 117 115 113 110 108 107 105 103 101 99 98 96 93
231 232 233 233 233 232 231 230 229 228 227 228 228 229 228 227 225 224 224 223 221 218 215 215 216 217 217 217 220 222 221 218 215 208 199 194 191 186 176 148 107 62 31 25 31 40 54 67 75 85 94 106 112 111 114 116 118 121 121 119 115 114 116 119 122 121 118 117 116 114 116 120 121 119 121 123 123 123 124 123 122 121 120 119 118 117 115 112 109 108 106 104 103 101 99 96 93
232 232 232 233 233 233 232 231 230 229 228 228 228 229 230 228 226 224 223 223 221 218 214 213 215 216 217 217 218 221 220 217 214 209 201 196 193 189 187 174 150 126 63 25 27 37 50 69 82 92 101 109 113 115 119 120 120 121 123 122 119 119 122 124 125 124 122 122 120 116 115 120 123 124 127 128 126 126 126 126 124 122 122 120 119 119 116 113 111 109 107 105 102 100 97 94 91
233 233 232 232 233 233 232 232 231 229 229 228 227 228 229 229 228 226 224 222 220 218 215 213 212 212 215 217 217 219 220 216 212 210 204 200 196 192 193 186 170 156 138 55 22 36 47 66 86 99 108 116 118 119 123 126 124 123 124 124 124 125 128 129 128 125 125 127 126 120 119 123 125 125 128 130 129 129 129 128 125 124 123 122 121 120 118 115 112 109 106 102 99 96 94 91 88
236 235 234 233 233 233 232 232 232 231 230 228 227 227 228 229 229 227 225 222 220 217 216 214 211 210 212 216 215 215 218 217 213 211 207 203 200 196 197 195 184 171 159 154 60 33 45 61 87 104 114 123 128 126 127 130 130 127 126 126 127 130 133 133 130 128 129 131 130 124 123 127 128 127 128 130 130 130 130 129 127 126 125 124 122 120 117 114 110 106 102 98 95 94 92 89 87
239 237 236 235 234 233 232 232 232 231 230 229 228 227 227 228 228 228 226 224 220 218 216 214 213 212 213 215 215 213 214 216 216 213 210 207 204 199 199 202 196 185 173 169 178 203 43 60 85 108 119 127 134 137 135 134 135 135 133 132 131 133 136 136 134 132 134 135 133 129 126 128 130 129 130 132 131 130 130 130 128 127 126 125 122 119 116 113 109 105 101 98 96 94 90 86 84
241 241 240 238 236 235 233 232 232 231 230 229 228 228 227 227 227 227 227 225 222 219 217 216 216 216 216 217 217 215 211 212 216 216 214 212 209 202 199 204 204 198 188 179 177 192 206 78 87 111 126 131 136 142 143 140 138 138 140 140 138 137 138 140 139 137 138 139 137 135 132 131 131 132 133 135 135 132 132 132 130 128 128 126 124 120 117 114 111 107 103 100 96 92 86 81 78
242 244 244 242 240 238 236 234 233 232 230 229 228 228 228 227 227 226 226 226 224 220 217 216 216 217 217 217 219 218 211 208 211 215 217 216 213 208 203 202 204 205 201 190 181 184 196 196 127 117 136 142 141 145 148 149 145 142 143 146 147 145 145 146 145 144 145 146 144 142 139 137 136 137 139 140 140 137 136 134 133 131 130 128 127 124 120 117 115 110 105 99 93 86 79 73 70
240 242 245 247 246 243 240 238 236 234 231 229 228 228 227 227 227 227 226 225 225 222 218 216 214 214 216 217 219 220 215 208 208 212 217 218 215 213 209 205 205 207 207 200 191 187 191 199 193 156 148 154 153 151 151 154 154 151 149 150 152 153 152 152 152 151 151 153 152 150 146 143 143 143 144 145 144 143 141 138 137 136 135 135 134 132 129 125 120 115 110 105 95 83 76 70 61
240 240 243 246 248 248 246 243 240 237 233 230 230 229 227 226 226 227 226 225 225 223 220 217 214 212 212 214 217 219 216 210 210 211 214 217 218 218 215 212 210 212 211 207 199 196 196 196 195 191 178 166 164 161 158 157 159 160 158 157 157 157 156 155 156 157 156 158 159 157 154 150 149 149 151 152 151 149 148 146 144 143 144 142 139 137 135 131 128 127 123 117 103 83 74 65 51
246 243 242 245 247 248 248 247 244 241 237 233 231 230 229 227 225 225 226 225 224 223 220 218 215 212 210 209 212 216 214 209 209 210 210 212 214 215 216 217 218 219 216 211 206 202 201 198 196 198 197 184 173 170 169 166 165 165 165 164 163 162 161 159 159 161 161 163 164 163 161 160 160 162 162 162 160 158 157 154 150 148 146 142 138 133 125 121 130 139 126 112 94 64 54 43 33